Simultaneous Nadir Overpasses (SNOs) Predictions

Prediction of SNOs near US between NOAA-19 and NPP Satellite Orbit:

Table of predicted SNOs near US for the next 10.0 days since TLE Epoch: 12/29/2012
Index Date (NOAA-19) Time (NOAA-19) NOAA-19 Lat,Lon Date (NPP) Time (NPP) NPP Lat,Lon Distance(km) Time Diff (sec)
1 01/03/2013 18:38:14 47.03, -85.44 01/03/2013 18:39:05 46.43, -88.23 223.31 51
2 01/03/2013 20:20:53 48.98,-111.79 01/03/2013 20:21:10 48.46,-114.44 203.20 17
3 01/04/2013 06:59:14 38.55, -73.95 01/04/2013 06:55:56 38.96, -76.09 191.20 198
4 01/04/2013 08:41:54 36.51,-100.13 01/04/2013 08:38:01 36.91,-102.12 183.34 233
5 01/04/2013 18:28:13 49.97, -83.98 01/04/2013 18:21:02 49.83, -84.90 67.53 431
6 01/04/2013 20:10:18 49.98,-109.51 01/04/2013 20:02:32 49.84,-110.28 57.41 466
